EUTELSAT 7B

Last updated on Mon Oct 14 2024 00:02:39 GMT+0000 (Coordinated Universal Time)

1 39163U 13022A 24287.33645184 .00000047 00000+0 00000+0 0 9996 2 39163 0.0701 15.0338 0001355 303.4120 192.0801 1.00270909 41823
UTC large
Height (km)
Speed (km/s)
/
Latitude / Longitude
Inclination (degrees)
Orbital Period (minutes)
Azimuth
Elevation
Range (km)
Doppler Factor

Next 0 passes for location: London (51.5072 / 0.1276)

Sorry there are no passes over London.